Weather History for Glencoe, MN

Change the Weather History Date:

Friday, February 8, 2013

  Actual Average (KHCD) Record (KHCD)
Temperature  
Mean Temperature 20 °F -  
Max Temperature 27 °F 24 °F 55 °F (1987)
Min Temperature 14 °F 0 °F -23 °F (1971)
Degree Days  
Heating Degree Days 44    
Moisture  
Dew Point 18 °F    
Average Humidity 82    
Maximum Humidity 93    
Minimum Humidity 69    
Precipitation  
Precipitation 0.00 in - - ()
Sea Level Pressure  
Sea Level Pressure 30.27 in    
Wind  
Wind Speed 6 mph (ESE)    
Max Wind Speed 12 mph    
Max Gust Speed 18 mph    
Visibility 10 miles    
Events      
Averages and records for this station are not official NWS values.
T = Trace of Precipitation, MM = Missing Value Source: NWS Daily Summary

Daily Weather History Graph

Daily Weather History Graph

Search for Another Location

Airport:

Trip Planner

Search our weather history database for the weather conditions in past years. The results will help you decide how hot, cold, wet, or windy it might be!

Date:

Astronomy

Feb. 08, 2013 Rise Set
Actual Time 7:26 AM CST 5:35 PM CST
Civil Twilight 6:55 AM CST 6:05 PM CST
Nautical Twilight 6:21 AM CST 6:40 PM CST
Astronomical Twilight 5:47 AM CST 7:14 PM CST
Moon 5:57 AM CST (2/8) 4:08 PM CST (2/8)
Length of Visible Light 11h 09m
Length of Day
10h 08m
Waning Crescent, 3% of the Moon is Illuminated
Feb 8
Waning Crescent
Feb 10
New
Feb 17
First Quarter
Feb 25
Full
Mar 4
Last Quarter

Hourly Weather History & Observations

Time (CST) Temp. Windchill Dew Point Humidity Pressure Visibility Wind Dir Wind Speed Gust Speed Precip Events Conditions
12:16 AM 24.8 °F 16.1 °F 18.5 °F 77% 30.25 in 10.0 mi North 8.1 mph - N/A   Overcast
12:36 AM 24.8 °F 16.1 °F 18.5 °F 77% 30.26 in 10.0 mi North 8.1 mph - N/A   Overcast
12:56 AM 24.6 °F 17.7 °F 18.1 °F 76% 30.26 in 10.0 mi North 5.8 mph - N/A   Overcast
1:16 AM 24.4 °F 18.6 °F 18.3 °F 78% 30.26 in 10.0 mi North 4.6 mph - N/A   Overcast
1:36 AM 24.3 °F 17.3 °F 18.5 °F 79% 30.27 in 10.0 mi North 5.8 mph - N/A   Overcast
1:56 AM 23.9 °F 18.0 °F 18.5 °F 80% 30.27 in 10.0 mi North 4.6 mph - N/A   Overcast
2:16 AM 23.7 °F 19.3 °F 18.9 °F 82% 30.27 in 10.0 mi NNW 3.5 mph - N/A   Overcast
2:36 AM 23.5 °F 17.6 °F 18.9 °F 82% 30.27 in 10.0 mi North 4.6 mph - N/A   Overcast
2:56 AM 23.4 °F 18.9 °F 18.7 °F 82% 30.27 in 10.0 mi NNW 3.5 mph - N/A   Overcast
3:36 AM 22.8 °F 18.2 °F 18.5 °F 83% 30.27 in 10.0 mi North 3.5 mph - N/A   Overcast
3:56 AM 22.6 °F - 18.5 °F 84% 30.27 in 10.0 mi Calm Calm - N/A   Overcast
4:16 AM 22.6 °F - 18.7 °F 85% 30.27 in 10.0 mi Calm Calm - N/A   Overcast
4:35 AM 22.5 °F 17.8 °F 18.7 °F 85% 30.29 in 10.0 mi NNW 3.5 mph - N/A   Overcast
4:56 AM 21.9 °F 15.7 °F 18.5 °F 87% 30.30 in 10.0 mi NNW 4.6 mph - N/A   Overcast
5:16 AM 21.7 °F 15.5 °F 18.5 °F 87% 30.30 in 10.0 mi NNW 4.6 mph - N/A   Overcast
5:36 AM 21.6 °F 16.8 °F 18.3 °F 87% 30.30 in 10.0 mi NNW 3.5 mph - N/A   Overcast
5:56 AM 20.7 °F 15.8 °F 17.6 °F 88% 30.31 in 10.0 mi NNW 3.5 mph - N/A   Overcast
6:16 AM 19.4 °F 14.3 °F 16.5 °F 89% 30.31 in 10.0 mi NNW 3.5 mph - N/A   Overcast
6:36 AM 17.2 °F 11.9 °F 14.7 °F 90% 30.32 in 10.0 mi North 3.5 mph - N/A   Mostly Cloudy
6:56 AM 16.9 °F 9.8 °F 14.9 °F 92% 30.31 in 10.0 mi North 4.6 mph - N/A   Scattered Clouds
7:16 AM 17.1 °F 11.7 °F 14.9 °F 91% 30.31 in 10.0 mi North 3.5 mph - N/A   Clear
7:35 AM 14.0 °F - 12.0 °F 92% 30.31 in 10.0 mi Calm Calm - N/A   Clear
7:56 AM 14.4 °F - 12.7 °F 93% 30.31 in 10.0 mi Calm Calm - N/A   Clear
8:16 AM 15.4 °F - 13.8 °F 93% 30.32 in 10.0 mi Calm Calm - N/A   Clear
8:36 AM 14.9 °F - 13.1 °F 93% 30.32 in 10.0 mi Calm Calm - N/A   Clear
8:56 AM 16.2 °F - 14.2 °F 92% 30.33 in 10.0 mi Calm Calm - N/A   Clear
9:16 AM 17.2 °F 8.9 °F 14.0 °F 87% 30.33 in 10.0 mi ENE 5.8 mph - N/A   Clear
9:36 AM 18.0 °F 12.7 °F 14.0 °F 84% 30.34 in 10.0 mi East 3.5 mph - N/A   Mostly Cloudy
9:56 AM 18.5 °F - 14.2 °F 83% 30.34 in 10.0 mi Calm Calm - N/A   Overcast
10:15 AM 19.8 °F 11.9 °F 15.1 °F 82% 30.33 in 10.0 mi East 5.8 mph - N/A   Overcast
11:01 AM 24.1 °F 16.0 °F 18.0 °F 77% 30.33 in 10.0 mi ESE 6.9 mph - N/A   Overcast
11:16 AM 25.3 °F 17.6 °F 18.1 °F 74% 30.33 in 10.0 mi ESE 6.9 mph - N/A   Overcast
11:36 AM 26.1 °F 19.4 °F 18.1 °F 72% 30.34 in 10.0 mi SE 5.8 mph - N/A   Overcast
11:56 AM 26.4 °F 16.0 °F 18.3 °F 71% 30.33 in 10.0 mi ESE 11.5 mph - N/A   Overcast
12:16 PM 26.6 °F 18.2 °F 18.1 °F 70% 30.33 in 10.0 mi ESE 8.1 mph - N/A   Overcast
12:36 PM 27.0 °F 18.0 °F 18.3 °F 70% 30.32 in 10.0 mi ESE 9.2 mph - N/A   Overcast
12:56 PM 27.0 °F 17.3 °F 18.7 °F 71% 30.32 in 10.0 mi ESE 10.4 mph - N/A   Overcast
1:16 PM 27.0 °F 18.0 °F 18.1 °F 69% 30.30 in 10.0 mi ESE 9.2 mph - N/A   Overcast
1:36 PM 27.3 °F 18.4 °F 18.7 °F 70% 30.29 in 10.0 mi ESE 9.2 mph - N/A   Overcast
1:56 PM 27.0 °F 18.7 °F 18.3 °F 70% 30.29 in 10.0 mi SSE 8.1 mph - N/A   Overcast
2:16 PM 26.4 °F 18.9 °F 18.3 °F 71% 30.29 in 10.0 mi SE 6.9 mph - N/A   Overcast
2:35 PM 26.6 °F 17.5 °F 18.9 °F 73% 30.28 in 10.0 mi SE 9.2 mph - N/A   Overcast
2:56 PM 26.1 °F 16.8 °F 18.5 °F 73% 30.28 in 10.0 mi SE 9.2 mph - N/A   Overcast
3:16 PM 26.4 °F 18.9 °F 19.0 °F 74% 30.27 in 10.0 mi SE 6.9 mph - N/A   Overcast
3:36 PM 26.6 °F 18.2 °F 19.4 °F 74% 30.27 in 10.0 mi SE 8.1 mph - N/A   Overcast
3:56 PM 25.7 °F 16.4 °F 19.0 °F 76% 30.27 in 10.0 mi SE 9.2 mph - N/A   Overcast
4:16 PM 25.9 °F 17.4 °F 19.2 °F 76% 30.26 in 10.0 mi SE 8.1 mph - N/A   Overcast
4:36 PM 25.5 °F 16.2 °F 19.2 °F 77% 30.24 in 10.0 mi SE 9.2 mph - N/A   Overcast
4:56 PM 25.2 °F 15.7 °F 18.9 °F 77% 30.24 in 10.0 mi SE 9.2 mph 16.1 mph N/A   Overcast
5:16 PM 24.8 °F 14.6 °F 19.4 °F 80% 30.24 in 10.0 mi SE 10.4 mph - N/A   Overcast
5:36 PM 24.6 °F 14.4 °F 19.4 °F 81% 30.23 in 10.0 mi SE 10.4 mph - N/A   Overcast
5:56 PM 24.6 °F 15.1 °F 19.4 °F 81% 30.22 in 10.0 mi ESE 9.2 mph - N/A   Overcast
6:16 PM 24.8 °F 15.3 °F 19.9 °F 82% 30.22 in 10.0 mi SE 9.2 mph - N/A   Overcast
6:36 PM 24.6 °F 14.4 °F 19.9 °F 82% 30.22 in 10.0 mi SE 10.4 mph - N/A   Overcast
6:56 PM 24.8 °F 15.3 °F 20.3 °F 83% 30.22 in 10.0 mi SE 9.2 mph - N/A   Overcast
7:16 PM 24.8 °F 14.6 °F 20.3 °F 83% 30.22 in 10.0 mi SE 10.4 mph 18.4 mph N/A   Overcast
7:36 PM 24.8 °F 14.6 °F 20.7 °F 84% 30.22 in 10.0 mi SE 10.4 mph - N/A   Overcast
7:56 PM 24.8 °F 14.6 °F 20.7 °F 84% 30.21 in 10.0 mi SE 10.4 mph - N/A   Overcast
8:16 PM 25.2 °F 15.7 °F 21.0 °F 84% 30.21 in 10.0 mi SE 9.2 mph - N/A   Overcast
8:36 PM 25.2 °F 15.7 °F 21.0 °F 84% 30.20 in 10.0 mi SE 9.2 mph - N/A   Overcast
8:56 PM 25.3 °F 16.0 °F 21.2 °F 84% 30.19 in 10.0 mi SE 9.2 mph - N/A   Overcast
9:16 PM 25.5 °F 14.9 °F 21.2 °F 84% 30.19 in 10.0 mi SSE 11.5 mph - N/A   Overcast
9:36 PM 25.5 °F 14.9 °F 21.4 °F 84% 30.19 in 10.0 mi SSE 11.5 mph 17.3 mph N/A   Overcast
9:56 PM 25.3 °F 15.3 °F 21.6 °F 86% 30.19 in 10.0 mi SSE 10.4 mph 16.1 mph N/A   Overcast
10:16 PM 25.3 °F 16.0 °F 21.6 °F 86% 30.19 in 10.0 mi SSE 9.2 mph - N/A   Overcast
10:36 PM 25.7 °F 16.4 °F 21.9 °F 86% 30.18 in 10.0 mi SSE 9.2 mph - N/A   Overcast
10:56 PM 25.7 °F 16.4 °F 22.1 °F 86% 30.17 in 10.0 mi SE 9.2 mph - N/A   Overcast
11:15 PM 25.7 °F 16.4 °F 22.1 °F 86% 30.17 in 10.0 mi SE 9.2 mph - N/A   Overcast
11:36 PM 25.7 °F 16.4 °F 22.1 °F 86% 30.17 in 10.0 mi SSE 9.2 mph - N/A   Overcast
11:56 PM 25.7 °F 15.7 °F 22.1 °F 86% 30.17 in 10.0 mi SSE 10.4 mph 16.1 mph N/A   Overcast